This is the latest recevied weather packets stored in our database for station/object AD8PA-13. If no packets are shown the sender has not sent any weather packets the latest 10 day(s).
| Time | Temp. | Humidity | Pressure | Rain* | Wind** | Luminosity | Snow |
|---|---|---|---|---|---|---|---|
| 1777759574 | 8.89° C | 47% | 1016.8 hPa | 0 mm | - | - | - |
| 1777758670 | 8.89° C | 47% | 1016.8 hPa | 0 mm | - | - | - |
| 1777757768 | 8.33° C | 46% | 1016.7 hPa | 0 mm | - | - | - |
| 1777756867 | 8.89° C | 44% | 1016.8 hPa | 0 mm | - | - | - |
| 1777755963 | 8.33° C | 45% | 1016.9 hPa | 0 mm | - | - | - |
| 1777755059 | 8.33° C | 46% | 1016.9 hPa | 0 mm | - | - | - |
| 1777754156 | 8.89° C | 47% | 1017 hPa | 0 mm | - | - | - |
| 1777753254 | 8.33° C | 45% | 1017.1 hPa | 0 mm | - | - | - |
| 1777752354 | 8.33° C | 45% | 1017.3 hPa | 0 mm | - | - | - |
| 1777751451 | 8.33° C | 45% | 1017.4 hPa | 0 mm | - | - | - |
| 1777750547 | 8.33° C | 47% | 1017.5 hPa | 0 mm | - | - | - |
| 1777749643 | 7.78° C | 45% | 1017.7 hPa | 0 mm | - | - | - |
| 1777748741 | 8.33° C | 44% | 1017.8 hPa | 0 mm | - | - | - |
| 1777747836 | 8.33° C | 44% | 1017.8 hPa | 0 mm | - | - | - |
| 1777746936 | 8.33° C | 43% | 1018 hPa | 0 mm | - | - | - |
| 1777746035 | 8.33° C | 45% | 1017.9 hPa | 0 mm | - | - | - |
| 1777745134 | 8.89° C | 42% | 1017.9 hPa | 0 mm | - | - | - |
| 1777744233 | 8.33° C | 47% | 1018.2 hPa | 0 mm | - | - | - |
| 1777743330 | 7.78° C | 47% | 1018.4 hPa | 0 mm | - | - | - |
| 1777742427 | 7.78° C | 45% | 1018.2 hPa | 0 mm | - | - | - |
| 1777741523 | 7.78° C | 44% | 1018.3 hPa | 0 mm | - | - | - |
| 1777740620 | 9.44° C | 44% | 1018.5 hPa | 0 mm | - | - | - |
| 1777739719 | 7.78° C | 46% | 1018.5 hPa | 0 mm | - | - | - |
| 1777738815 | 7.22° C | 48% | 1018.6 hPa | 0 mm | - | - | - |
| 1777737913 | 8.33° C | 44% | 1018.7 hPa | 0 mm | - | - | - |
* Rain latest hour (hover to see other rain measurements)
** Current wind speed in m/s (hover to see current wind gust speed)